Location: *
(44.3683°N, 6.6958°E)
Time: 08:10:54
(UTC+00:00)

COSMOS 2406 - Pass Details

Date: 14 October 2019
Orbit: 842 x 865 km, 71.0° (Epoch: 11 November)

Event Time Altitude Azimuth Distance (km) Brightness Sun altitude
Rises 17:50:08 0° 339° (NNW) 3,457 6.7 -11.3°
Reaches altitude 10° 17:52:45 10° 346° (NNW) 2,515 5.8 -11.7°
Maximum altitude 17:58:13 42° 57° (ENE) 1,224 3.7 -12.7°
Enters shadow 18:02:56 13° 124° (SE) 2,257 4.9 -13.5°
